When you browse on this site, cookies collect data to enhance your experience and personalize the content and advertising you see.
Visit our Privacy Policy to learn more. By continuing to use the site, you agree to this use of cookies and data.
  • In Latvia
  • List of Countries
  • For 7 days
  • Water Temperature
  • Weather Map
  • Weather Widgets
  • user-avatar
    Login

    Hourly Weather Strenci

    Today, 21 February, Friday

    Time Temperature Precipitation Wind Pressure Humidity
    00:00 +1°C° 0 mm 3 mps 757 mmHg 84%
    01:00 +1°C° 0 mm 3 mps 756 mmHg 85%
    02:00 0°C° 0 mm 3 mps 756 mmHg 86%
    03:00 -1°C° 0 mm 4 mps 755 mmHg 83%
    04:00 -1°C° 0 mm 4 mps 755 mmHg 81%
    05:00 -1°C° 0 mm 4 mps 754 mmHg 78%
    06:00 -1°C° 0 mm 5 mps 754 mmHg 77%
    07:00 -1°C° 0 mm 5 mps 753 mmHg 77%
    08:00 -1°C° 0 mm 5 mps 753 mmHg 76%
    15:00 +1°C° 0 mm 6 mps 752 mmHg 75%
    16:00 +1°C° 0 mm 6 mps 753 mmHg 81%
    17:00 +1°C° 0 mm 5 mps 753 mmHg 87%
    18:00 +1°C° 0.2 mm 5 mps 753 mmHg 89%
    19:00 +1°C° 0.2 mm 5 mps 753 mmHg 91%
    20:00 +1°C° 0.2 mm 4 mps 754 mmHg 93%
    21:00 +1°C° 0 mm 4 mps 754 mmHg 92%
    22:00 0°C° 0 mm 4 mps 754 mmHg 91%
    23:00 +1°C° 0 mm 3 mps 754 mmHg 90%

    Tomorrow, 22 February, Saturday

    Time Temperature Precipitation Wind Pressure Humidity
    00:00 +1°C° 0 mm 3 mps 755 mmHg 91%
    01:00 -1°C° 0 mm 4 mps 755 mmHg 91%
    02:00 -1°C° 0 mm 4 mps 755 mmHg 92%
    03:00 -1°C° 0 mm 4 mps 755 mmHg 92%
    04:00 0°C° 0 mm 4 mps 755 mmHg 91%
    05:00 0°C° 0 mm 5 mps 754 mmHg 91%
    06:00 0°C° 0 mm 5 mps 754 mmHg 89%
    07:00 +1°C° 0 mm 6 mps 754 mmHg 87%
    08:00 +1°C° 0 mm 6 mps 753 mmHg 86%
    09:00 +1°C° 0 mm 6 mps 753 mmHg 84%
    10:00 +2°C° 0 mm 7 mps 752 mmHg 82%
    11:00 +2°C° 0 mm 7 mps 751 mmHg 80%
    12:00 +1°C° 0.1 mm 8 mps 750 mmHg 80%
    13:00 +1°C° 0.1 mm 8 mps 748 mmHg 81%
    14:00 +1°C° 0.1 mm 9 mps 747 mmHg 81%
    15:00 +1°C° 1.3 mm 9 mps 745 mmHg 84%
    16:00 +1°C° 1.3 mm 9 mps 743 mmHg 87%
    17:00 +1°C° 1.3 mm 9 mps 742 mmHg 91%
    18:00 +1°C° 1.3 mm 9 mps 740 mmHg 89%
    19:00 +1°C° 1.3 mm 9 mps 739 mmHg 88%
    20:00 +2°C° 1.3 mm 9 mps 738 mmHg 86%
    21:00 +2°C° 0.8 mm 9 mps 737 mmHg 79%
    22:00 +1°C° 0.8 mm 8 mps 737 mmHg 72%
    23:00 +1°C° 0.8 mm 8 mps 736 mmHg 65%

    Day after tomorrow, 23 February, Sunday

    Time Temperature Precipitation Wind Pressure Humidity
    00:00 0°C° 0.6 mm 8 mps 736 mmHg 72%
    01:00 0°C° 0.6 mm 9 mps 737 mmHg 79%
    02:00 -1°C° 0.6 mm 9 mps 737 mmHg 86%
    03:00 -1°C° 0.9 mm 8 mps 737 mmHg 87%
    04:00 -1°C° 0.9 mm 7 mps 738 mmHg 89%
    05:00 -1°C° 0.9 mm 7 mps 738 mmHg 90%
    06:00 -1°C° 0.1 mm 6 mps 739 mmHg 86%
    07:00 -1°C° 0.1 mm 6 mps 739 mmHg 82%
    08:00 +1°C° 0.1 mm 6 mps 739 mmHg 77%
    09:00 +1°C° 0 mm 6 mps 740 mmHg 77%
    10:00 +1°C° 0 mm 6 mps 740 mmHg 76%
    11:00 +1°C° 0 mm 6 mps 740 mmHg 75%
    12:00 0°C° 0.2 mm 7 mps 740 mmHg 80%
    13:00 0°C° 0.2 mm 7 mps 740 mmHg 85%
    14:00 -1°C° 0.2 mm 7 mps 741 mmHg 90%
    15:00 -1°C° 0.3 mm 7 mps 740 mmHg 89%
    16:00 -1°C° 0.3 mm 7 mps 739 mmHg 88%
    17:00 -1°C° 0.3 mm 7 mps 739 mmHg 87%
    18:00 -1°C° 0.3 mm 7 mps 739 mmHg 88%
    19:00 -1°C° 0.3 mm 7 mps 738 mmHg 89%
    20:00 -1°C° 0.3 mm 7 mps 738 mmHg 90%
    21:00 -1°C° 0.2 mm 6 mps 738 mmHg 90%
    22:00 +1°C° 0.2 mm 5 mps 738 mmHg 90%
    23:00 +1°C° 0.2 mm 5 mps 738 mmHg 90%

    24 February, Monday

    Time Temperature Precipitation Wind Pressure Humidity
    00:00 0°C° 0 mm 4 mps 738 mmHg 90%
    01:00 0°C° 0 mm 4 mps 738 mmHg 91%
    02:00 +1°C° 0 mm 3 mps 739 mmHg 91%
    03:00 0°C° 0 mm 3 mps 739 mmHg 90%
    04:00 0°C° 0 mm 3 mps 740 mmHg 89%
    05:00 -1°C° 0 mm 3 mps 740 mmHg 87%
    06:00 -2°C° 0 mm 4 mps 742 mmHg 82%
    07:00 -2°C° 0 mm 4 mps 743 mmHg 76%
    08:00 -2°C° 0 mm 4 mps 744 mmHg 70%
    09:00 -1°C° 0 mm 5 mps 745 mmHg 65%
    10:00 -2°C° 0 mm 6 mps 746 mmHg 60%
    11:00 -1°C° 0 mm 6 mps 747 mmHg 55%
    12:00 -1°C° 0 mm 7 mps 747 mmHg 54%
    13:00 -1°C° 0 mm 7 mps 748 mmHg 54%
    14:00 0°C° 0 mm 7 mps 748 mmHg 53%
    15:00 -1°C° 0 mm 6 mps 749 mmHg 55%
    16:00 -1°C° 0 mm 6 mps 749 mmHg 57%
    17:00 -1°C° 0 mm 5 mps 750 mmHg 59%
    18:00 -1°C° 0 mm 4 mps 751 mmHg 63%
    19:00 -2°C° 0 mm 4 mps 751 mmHg 67%
    20:00 -1°C° 0 mm 3 mps 752 mmHg 71%
    21:00 -2°C° 0 mm 3 mps 752 mmHg 72%
    22:00 -2°C° 0 mm 3 mps 752 mmHg 73%
    23:00 -2°C° 0 mm 2 mps 752 mmHg 74%

    25 February, Tuesday

    Time Temperature Precipitation Wind Pressure Humidity
    00:00 -2°C° 0 mm 2 mps 752 mmHg 75%
    01:00 -2°C° 0 mm 2 mps 751 mmHg 76%
    02:00 -2°C° 0 mm 3 mps 751 mmHg 76%
    03:00 -1°C° 0 mm 3 mps 750 mmHg 73%
    04:00 -1°C° 0 mm 3 mps 750 mmHg 70%
    05:00 -1°C° 0 mm 3 mps 749 mmHg 67%
    06:00 -2°C° 0 mm 4 mps 748 mmHg 69%
    07:00 -2°C° 0 mm 4 mps 747 mmHg 70%
    08:00 -2°C° 0 mm 5 mps 746 mmHg 72%
    09:00 -1°C° 0.1 mm 5 mps 745 mmHg 76%
    10:00 -2°C° 0.1 mm 6 mps 744 mmHg 80%
    11:00 -2°C° 0.1 mm 7 mps 742 mmHg 85%
    12:00 -2°C° 0.7 mm 7 mps 742 mmHg 88%
    13:00 -1°C° 0.7 mm 7 mps 741 mmHg 91%
    14:00 -1°C° 0.7 mm 6 mps 740 mmHg 95%
    15:00 0°C° 0.4 mm 5 mps 740 mmHg 91%
    16:00 +1°C° 0.4 mm 5 mps 739 mmHg 87%
    17:00 +3°C° 0.4 mm 4 mps 739 mmHg 83%
    18:00 +1°C° 0 mm 4 mps 739 mmHg 84%
    19:00 +1°C° 0 mm 4 mps 739 mmHg 86%
    20:00 0°C° 0 mm 4 mps 740 mmHg 88%
    21:00 0°C° 0 mm 4 mps 740 mmHg 90%
    22:00 0°C° 0 mm 5 mps 740 mmHg 92%
    23:00 0°C° 0 mm 5 mps 740 mmHg 94%

    26 February, Wednesday

    Time Temperature Precipitation Wind Pressure Humidity
    00:00 0°C° 0 mm 5 mps 740 mmHg 92%
    01:00 0°C° 0 mm 5 mps 739 mmHg 91%
    02:00 0°C° 0 mm 4 mps 739 mmHg 90%
    03:00 0°C° 0.1 mm 5 mps 739 mmHg 90%
    04:00 0°C° 0.1 mm 5 mps 739 mmHg 91%
    05:00 0°C° 0.1 mm 5 mps 738 mmHg 92%
    06:00 -1°C° 0.2 mm 5 mps 738 mmHg 92%
    07:00 -1°C° 0.2 mm 5 mps 738 mmHg 91%
    08:00 -1°C° 0.2 mm 5 mps 738 mmHg 91%
    09:00 0°C° 0 mm 5 mps 738 mmHg 87%
    10:00 0°C° 0 mm 5 mps 738 mmHg 84%
    11:00 +1°C° 0 mm 5 mps 738 mmHg 80%
    12:00 +1°C° 0.2 mm 5 mps 737 mmHg 80%
    13:00 +1°C° 0.2 mm 5 mps 737 mmHg 80%
    14:00 +1°C° 0.2 mm 5 mps 737 mmHg 81%
    15:00 +1°C° 0.1 mm 5 mps 737 mmHg 80%
    16:00 +1°C° 0.1 mm 4 mps 738 mmHg 80%
    17:00 +2°C° 0.1 mm 3 mps 738 mmHg 80%
    18:00 +1°C° 0 mm 3 mps 738 mmHg 82%
    19:00 +1°C° 0 mm 3 mps 738 mmHg 84%
    20:00 0°C° 0 mm 3 mps 738 mmHg 87%
    21:00 0°C° 0 mm 3 mps 738 mmHg 87%
    22:00 0°C° 0 mm 3 mps 738 mmHg 87%
    23:00 -1°C° 0 mm 3 mps 738 mmHg 87%
    Show more